Location: Newark
(15.4608°S, 41.1635°W)
Time: 15:25:41
(UTC+00:00)

Vanguard 3 - Pass Details

Date: 07 March 2021
Orbit: 508 x 3262 km, 33.3° (Epoch: 16 April)

Event Time Altitude Azimuth Distance (km) Brightness Sun altitude
Exits shadow 07:19:07 - 209° (SSW) 2,464 9.5 -21.6°
Reaches altitude 10° 07:20:18 10° 197° (SSW) 2,324 9.4 -21.4°
Maximum altitude 07:22:54 13° 168° (SSE) 2,361 9.8 -20.7°
Drops below altitude 10° 07:26:04 10° 140° (SE) 2,953 10.7 -20.0°
Sets 07:31:36 0° 116° (ESE) 4,579 12.5 -18.7°
